Location: Cumbre Roja
(10.2766°N, 67.0675°W)
Time: 01:06:40
(UTC+00:00)

ARIANE 5 R/B - Pass Details

Date: 18 November 2025
Orbit: 747 x 792 km, 98.8° (Epoch: 08 December)

Event Time Altitude Azimuth Distance (km) Brightness Sun altitude
Rises 22:33:25 0° 171° (S) 3,194 5.8 -8.0°
Reaches altitude 10° 22:35:43 10° 173° (S) 2,265 5.1 -8.6°
Maximum altitude 22:40:41 74° 258° (WSW) 778 2.7 -9.7°
Drops below altitude 10° 22:45:38 10° 342° (NNW) 2,255 4.9 -10.9°
Sets 22:47:55 0° 345° (NNW) 3,179 5.7 -11.4°
